^^
Daily Summary for May 23, 2021 Units:  English    Metric   Both
Daily Weekly Monthly Yearly Custom
  High: Low: Average:
Temperature: 77.0 °F 48.0 °F 61.4 °F
Dew Point: 44.0 °F 37.0 °F 39.1 °F
Humidity: 68% 25% 47%
Wind Speed: 27mph 0mph 5mph
Wind Gust: 26mph - -
Wind- - SW
Pressure: 30.2 in 30.1 in -
Precipitation: 0.000 in    
Historical Graphs
 
 
Tabular Data for May 23, 2021
Time Temperature Dew Point Pressure Wind Wind Speed Wind Gust Humidity Rainfall Rate (Hourly) solar
00:04 56.0 °F 37.0 °F 30.1 in Calm   2 mph 49% 0.000 in 0.00 W/m2
00:09 56.0 °F 37.0 °F 30.1 in Calm     49% 0.000 in 0.00 W/m2
00:14 56.0 °F 38.0 °F 30.1 in Calm     50% 0.000 in 0.00 W/m2
00:19 56.0 °F 38.0 °F 30.1 in Calm     50% 0.000 in 0.00 W/m2
00:24 56.0 °F 37.0 °F 30.1 in Calm     49% 0.000 in 0.00 W/m2
00:29 56.0 °F 37.0 °F 30.1 in Calm     49% 0.000 in 0.00 W/m2
00:34 56.0 °F 37.0 °F 30.1 in Calm     50% 0.000 in 0.00 W/m2
00:39 56.0 °F 37.0 °F 30.1 in Calm     50% 0.000 in 0.00 W/m2
00:44 56.0 °F 37.0 °F 30.1 in Calm     50% 0.000 in 0.00 W/m2
00:49 55.0 °F 38.0 °F 30.1 in Calm     51% 0.000 in 0.00 W/m2
00:54 55.0 °F 37.0 °F 30.1 in SW 2 mph   51% 0.000 in 0.00 W/m2
00:59 55.0 °F 37.0 °F 30.1 in Calm   2 mph 51% 0.000 in 0.00 W/m2
01:04 55.0 °F 38.0 °F 30.1 in SW 2 mph 2 mph 53% 0.000 in 0.00 W/m2
01:09 55.0 °F 38.0 °F 30.1 in SW 2 mph 2 mph 53% 0.000 in 0.00 W/m2
01:14 55.0 °F 38.0 °F 30.1 in SW 4 mph 2 mph 54% 0.000 in 0.00 W/m2
01:19 54.0 °F 38.0 °F 30.1 in SW 5 mph 3 mph 54% 0.000 in 0.00 W/m2
01:24 54.0 °F 38.0 °F 30.1 in SSE 7 mph 6 mph 53% 0.000 in 0.00 W/m2
01:29 54.0 °F 37.0 °F 30.1 in SE 4 mph 7 mph 53% 0.000 in 0.00 W/m2
01:34 54.0 °F 38.0 °F 30.1 in Calm   3 mph 54% 0.000 in 0.00 W/m2
01:39 54.0 °F 38.0 °F 30.1 in SSE 4 mph 1 mph 54% 0.000 in 0.00 W/m2
01:44 54.0 °F 37.0 °F 30.1 in Calm   3 mph 53% 0.000 in 0.00 W/m2
01:49 54.0 °F 38.0 °F 30.1 in Calm     55% 0.000 in 0.00 W/m2
01:54 54.0 °F 38.0 °F 30.1 in Calm     54% 0.000 in 0.00 W/m2
01:59 54.0 °F 37.0 °F 30.1 in SSE 2 mph   54% 0.000 in 0.00 W/m2
02:04 54.0 °F 37.0 °F 30.1 in Calm   2 mph 54% 0.000 in 0.00 W/m2
02:09 54.0 °F 38.0 °F 30.1 in Calm     55% 0.000 in 0.00 W/m2
02:14 54.0 °F 38.0 °F 30.1 in Calm     55% 0.000 in 0.00 W/m2
02:19 53.0 °F 38.0 °F 30.1 in Calm     55% 0.000 in 0.00 W/m2
02:24 53.0 °F 38.0 °F 30.1 in SSE 2 mph 2 mph 56% 0.000 in 0.00 W/m2
02:29 53.0 °F 38.0 °F 30.1 in SSE 2 mph   56% 0.000 in 0.00 W/m2
02:34 53.0 °F 38.0 °F 30.1 in Calm   2 mph 56% 0.000 in 0.00 W/m2
02:39 53.0 °F 37.0 °F 30.1 in Calm     56% 0.000 in 0.00 W/m2
02:44 52.0 °F 37.0 °F 30.1 in Calm     56% 0.000 in 0.00 W/m2
02:49 52.0 °F 37.0 °F 30.1 in Calm     57% 0.000 in 0.00 W/m2
02:54 52.0 °F 37.0 °F 30.1 in Calm     57% 0.000 in 0.00 W/m2
02:59 52.0 °F 37.0 °F 30.1 in Calm     58% 0.000 in 0.00 W/m2
03:04 52.0 °F 37.0 °F 30.1 in Calm     58% 0.000 in 0.00 W/m2
03:09 51.0 °F 37.0 °F 30.1 in Calm     58% 0.000 in 0.00 W/m2
03:14 51.0 °F 37.0 °F 30.1 in Calm     59% 0.000 in 0.00 W/m2
03:19 51.0 °F 37.0 °F 30.1 in Calm     59% 0.000 in 0.00 W/m2
03:24 51.0 °F 37.0 °F 30.1 in Calm     59% 0.000 in 0.00 W/m2
03:29 51.0 °F 37.0 °F 30.1 in Calm     59% 0.000 in 0.00 W/m2
03:34 51.0 °F 37.0 °F 30.1 in Calm     59% 0.000 in 0.00 W/m2
03:39 50.0 °F 37.0 °F 30.1 in Calm     59% 0.000 in 0.00 W/m2
03:44 50.0 °F 37.0 °F 30.1 in Calm     60% 0.000 in 0.00 W/m2
03:49 50.0 °F 37.0 °F 30.1 in Calm     62% 0.000 in 0.00 W/m2
03:54 50.0 °F 37.0 °F 30.1 in Calm     62% 0.000 in 0.00 W/m2
03:59 50.0 °F 37.0 °F 30.1 in Calm     61% 0.000 in 0.00 W/m2
04:04 50.0 °F 37.0 °F 30.1 in Calm     61% 0.000 in 0.00 W/m2
04:09 49.0 °F 37.0 °F 30.1 in Calm     62% 0.000 in 0.00 W/m2
04:14 49.0 °F 37.0 °F 30.1 in Calm     62% 0.000 in 0.00 W/m2
04:19 49.0 °F 37.0 °F 30.1 in Calm     62% 0.000 in 0.00 W/m2
04:24 49.0 °F 37.0 °F 30.1 in Calm     62% 0.000 in 0.00 W/m2
04:29 49.0 °F 37.0 °F 30.1 in Calm     62% 0.000 in 0.00 W/m2
04:34 49.0 °F 37.0 °F 30.1 in Calm     62% 0.000 in 0.00 W/m2
04:39 49.0 °F 37.0 °F 30.1 in Calm     63% 0.000 in 0.00 W/m2
04:44 49.0 °F 37.0 °F 30.1 in Calm     63% 0.000 in 0.00 W/m2
04:49 49.0 °F 37.0 °F 30.1 in Calm     63% 0.000 in 0.00 W/m2
04:54 49.0 °F 37.0 °F 30.1 in East 4 mph 1 mph 64% 0.000 in 0.00 W/m2
04:59 48.0 °F 37.0 °F 30.1 in Calm   3 mph 65% 0.000 in 0.00 W/m2
05:04 48.0 °F 37.0 °F 30.1 in SE 6 mph 2 mph 65% 0.000 in 0.00 W/m2
05:09 48.0 °F 38.0 °F 30.1 in SE 4 mph 6 mph 67% 0.000 in 0.00 W/m2
05:14 48.0 °F 38.0 °F 30.1 in Calm   3 mph 67% 0.000 in 0.00 W/m2
05:19 48.0 °F 38.0 °F 30.1 in SE 2 mph   67% 0.000 in 0.00 W/m2
05:24 48.0 °F 38.0 °F 30.1 in SE 2 mph 2 mph 67% 0.000 in 0.00 W/m2
05:29 48.0 °F 38.0 °F 30.1 in SE 4 mph 1 mph 67% 0.000 in 0.00 W/m2
05:34 48.0 °F 37.0 °F 30.1 in SW 2 mph 3 mph 66% 0.000 in 0.00 W/m2
05:39 48.0 °F 37.0 °F 30.1 in SW 2 mph 2 mph 66% 0.000 in 0.00 W/m2
05:44 48.0 °F 37.0 °F 30.1 in Calm     66% 0.000 in 0.00 W/m2
05:49 48.0 °F 37.0 °F 30.1 in Calm     66% 0.000 in 0.00 W/m2
05:54 48.0 °F 37.0 °F 30.1 in Calm     65% 0.000 in 5.00 W/m2
05:59 48.0 °F 37.0 °F 30.1 in Calm     65% 0.000 in 5.00 W/m2
06:04 48.0 °F 37.0 °F 30.1 in Calm     66% 0.000 in 11.00 W/m2
06:09 48.0 °F 37.0 °F 30.1 in Calm     66% 0.000 in 16.00 W/m2
06:14 48.0 °F 37.0 °F 30.1 in Calm     65% 0.000 in 21.00 W/m2
06:19 48.0 °F 37.0 °F 30.1 in Calm     65% 0.000 in 23.00 W/m2
06:24 48.0 °F 37.0 °F 30.1 in Calm     65% 0.000 in 23.00 W/m2
06:29 48.0 °F 37.0 °F 30.1 in Calm     65% 0.000 in 26.00 W/m2
06:34 48.0 °F 37.0 °F 30.2 in Calm     65% 0.000 in 26.00 W/m2
06:39 48.0 °F 37.0 °F 30.2 in Calm     66% 0.000 in 25.00 W/m2
06:44 48.0 °F 37.0 °F 30.2 in Calm     66% 0.000 in 18.00 W/m2
06:48 48.0 °F 37.0 °F 30.2 in Calm     66% 0.000 in 16.00 W/m2
06:54 48.0 °F 38.0 °F 30.2 in Calm     67% 0.000 in 14.00 W/m2
06:59 48.0 °F 38.0 °F 30.2 in Calm     67% 0.000 in 14.00 W/m2
07:04 48.0 °F 38.0 °F 30.2 in SSW 2 mph   67% 0.000 in 14.00 W/m2
07:09 48.0 °F 38.0 °F 30.2 in SSW 2 mph 2 mph 68% 0.000 in 16.00 W/m2
07:14 48.0 °F 38.0 °F 30.2 in SSW 2 mph 2 mph 67% 0.000 in 19.00 W/m2
07:19 48.0 °F 38.0 °F 30.2 in Calm     67% 0.000 in 21.00 W/m2
07:24 48.0 °F 38.0 °F 30.2 in Calm     67% 0.000 in 44.00 W/m2
07:29 48.0 °F 38.0 °F 30.2 in Calm     67% 0.000 in 47.00 W/m2
07:34 48.0 °F 38.0 °F 30.2 in Calm     68% 0.000 in 56.00 W/m2
07:39 48.0 °F 38.0 °F 30.2 in SSW 2 mph 2 mph 68% 0.000 in 46.00 W/m2
07:43 48.0 °F 38.0 °F 30.2 in Calm   2 mph 68% 0.000 in 30.00 W/m2
07:49 48.0 °F 38.0 °F 30.2 in SSW 4 mph 3 mph 68% 0.000 in 47.00 W/m2
07:54 48.0 °F 38.0 °F 30.2 in SSW 4 mph 3 mph 68% 0.000 in 83.00 W/m2
07:59 48.0 °F 38.0 °F 30.2 in SSE 4 mph 3 mph 68% 0.000 in 116.00 W/m2
08:04 49.0 °F 39.0 °F 30.2 in SSE 7 mph 4 mph 68% 0.000 in 104.00 W/m2
08:09 49.0 °F 39.0 °F 30.2 in SSE 6 mph 7 mph 67% 0.000 in 58.00 W/m2
08:14 50.0 °F 39.0 °F 30.2 in SSW 4 mph 6 mph 66% 0.000 in 81.00 W/m2
08:19 51.0 °F 39.0 °F 30.2 in WSW 2 mph 3 mph 65% 0.000 in 232.00 W/m2
08:24 51.0 °F 39.0 °F 30.2 in South 4 mph 3 mph 64% 0.000 in 304.00 W/m2
08:29 51.0 °F 40.0 °F 30.2 in SSW 4 mph 3 mph 64% 0.000 in 397.00 W/m2
08:34 52.0 °F 40.0 °F 30.2 in South 6 mph 4 mph 63% 0.000 in 230.00 W/m2
08:39 53.0 °F 40.0 °F 30.2 in ESE 6 mph 6 mph 62% 0.000 in 83.00 W/m2
08:44 53.0 °F 40.0 °F 30.2 in North 2 mph 6 mph 62% 0.000 in 232.00 W/m2
08:49 54.0 °F 41.0 °F 30.2 in WSW 6 mph 3 mph 60% 0.000 in 499.00 W/m2
08:54 55.0 °F 40.0 °F 30.2 in SSW 5 mph 6 mph 59% 0.000 in 545.00 W/m2
08:59 55.0 °F 41.0 °F 30.2 in SE 6 mph 6 mph 59% 0.000 in 545.00 W/m2
09:04 56.0 °F 40.0 °F 30.2 in South 9 mph 4 mph 56% 0.000 in 601.00 W/m2
09:09 56.0 °F 40.0 °F 30.2 in SSE 7 mph 9 mph 54% 0.000 in 615.00 W/m2
09:14 57.0 °F 41.0 °F 30.2 in SSE 9 mph 6 mph 55% 0.000 in 633.00 W/m2
09:19 57.0 °F 41.0 °F 30.2 in South 7 mph 9 mph 54% 0.000 in 647.00 W/m2
09:24 58.0 °F 41.0 °F 30.2 in SE 4 mph 7 mph 53% 0.000 in 661.00 W/m2
09:29 58.0 °F 41.0 °F 30.2 in SSE 7 mph 6 mph 53% 0.000 in 675.00 W/m2
09:34 59.0 °F 41.0 °F 30.2 in SSE 2 mph 7 mph 53% 0.000 in 691.00 W/m2
09:39 60.0 °F 41.0 °F 30.2 in West 4 mph 2 mph 50% 0.000 in 703.00 W/m2
09:44 60.0 °F 41.0 °F 30.2 in WNW 6 mph 3 mph 50% 0.000 in 717.00 W/m2
09:49 60.0 °F 42.0 °F 30.2 in SE 7 mph 6 mph 50% 0.000 in 728.00 W/m2
09:54 61.0 °F 42.0 °F 30.2 in WSW 4 mph 7 mph 50% 0.000 in 744.00 W/m2
09:59 61.0 °F 42.0 °F 30.2 in West 7 mph 4 mph 50% 0.000 in 754.00 W/m2
10:04 62.0 °F 41.0 °F 30.2 in WNW 7 mph 7 mph 47% 0.000 in 766.00 W/m2
10:09 62.0 °F 42.0 °F 30.2 in WSW 7 mph 7 mph 47% 0.000 in 777.00 W/m2
10:14 63.0 °F 42.0 °F 30.2 in WSW 6 mph 7 mph 47% 0.000 in 791.00 W/m2
10:19 63.0 °F 42.0 °F 30.2 in SSW 7 mph 7 mph 46% 0.000 in 805.00 W/m2
10:24 63.0 °F 42.0 °F 30.2 in SW 11 mph 6 mph 46% 0.000 in 812.00 W/m2
10:29 63.0 °F 42.0 °F 30.2 in West 7 mph 10 mph 45% 0.000 in 828.00 W/m2
10:34 64.0 °F 42.0 °F 30.2 in WNW 7 mph 7 mph 45% 0.000 in 821.00 W/m2
10:38 64.0 °F 42.0 °F 30.2 in North 11 mph 7 mph 45% 0.000 in 828.00 W/m2
10:44 64.0 °F 42.0 °F 30.2 in West 7 mph 10 mph 44% 0.000 in 851.00 W/m2
10:49 64.0 °F 42.0 °F 30.2 in NW 7 mph 7 mph 45% 0.000 in 863.00 W/m2
10:54 64.0 °F 42.0 °F 30.2 in NW 9 mph 7 mph 45% 0.000 in 874.00 W/m2
10:59 64.0 °F 42.0 °F 30.2 in WNW 11 mph 9 mph 45% 0.000 in 884.00 W/m2
11:04 65.0 °F 42.0 °F 30.2 in WSW 6 mph 10 mph 44% 0.000 in 889.00 W/m2
11:09 65.0 °F 42.0 °F 30.2 in WNW 7 mph 6 mph 44% 0.000 in 902.00 W/m2
11:14 65.0 °F 43.0 °F 30.2 in West 7 mph 7 mph 44% 0.000 in 911.00 W/m2
11:19 65.0 °F 43.0 °F 30.2 in NNW 11 mph 9 mph 44% 0.000 in 918.00 W/m2
11:24 66.0 °F 43.0 °F 30.2 in South 11 mph 10 mph 43% 0.000 in 926.00 W/m2
11:29 66.0 °F 43.0 °F 30.2 in ENE 13 mph 13 mph 44% 0.000 in 939.00 W/m2
11:34 67.0 °F 44.0 °F 30.2 in SW 7 mph 9 mph 44% 0.000 in 942.00 W/m2
11:39 67.0 °F 43.0 °F 30.2 in WNW 16 mph 8 mph 42% 0.000 in 944.00 W/m2
11:44 67.0 °F 43.0 °F 30.2 in NNW 7 mph 16 mph 42% 0.000 in 947.00 W/m2
11:49 67.0 °F 43.0 °F 30.2 in WSW 11 mph 7 mph 41% 0.000 in 956.00 W/m2
11:54 68.0 °F 43.0 °F 30.2 in SW 9 mph 10 mph 41% 0.000 in 962.00 W/m2
11:59 68.0 °F 43.0 °F 30.2 in WSW 16 mph 12 mph 40% 0.000 in 962.00 W/m2
12:04 68.0 °F 41.0 °F 30.2 in West 11 mph 16 mph 38% 0.000 in 969.00 W/m2
12:09 68.0 °F 42.0 °F 30.2 in WNW 11 mph 10 mph 39% 0.000 in 969.00 W/m2
12:14 68.0 °F 42.0 °F 30.2 in NW 18 mph 11 mph 38% 0.000 in 976.00 W/m2
12:19 68.0 °F 42.0 °F 30.2 in SW 17 mph 17 mph 39% 0.000 in 976.00 W/m2
12:24 69.0 °F 43.0 °F 30.2 in South 18 mph 9 mph 40% 0.000 in 979.00 W/m2
12:28 69.0 °F 41.0 °F 30.2 in WSW 13 mph 17 mph 37% 0.000 in 977.00 W/m2
12:34 69.0 °F 42.0 °F 30.2 in NNW 9 mph 13 mph 37% 0.000 in 979.00 W/m2
12:39 69.0 °F 41.0 °F 30.2 in WSW 13 mph 9 mph 36% 0.000 in 983.00 W/m2
12:44 70.0 °F 43.0 °F 30.2 in NNW 11 mph 13 mph 38% 0.000 in 983.00 W/m2
12:49 70.0 °F 42.0 °F 30.2 in SW 18 mph 11 mph 37% 0.000 in 984.00 W/m2
12:54 70.0 °F 41.0 °F 30.2 in WSW 13 mph 17 mph 35% 0.000 in 983.00 W/m2
12:59 70.0 °F 41.0 °F 30.2 in NNE 9 mph 13 mph 35% 0.000 in 981.00 W/m2
13:04 70.0 °F 40.0 °F 30.2 in West 20 mph 15 mph 34% 0.000 in 981.00 W/m2
13:09 70.0 °F 40.0 °F 30.2 in West 9 mph 20 mph 34% 0.000 in 981.00 W/m2
13:14 71.0 °F 41.0 °F 30.2 in East 11 mph 9 mph 35% 0.000 in 977.00 W/m2
13:19 71.0 °F 42.0 °F 30.2 in East 9 mph 10 mph 35% 0.000 in 972.00 W/m2
13:24 71.0 °F 41.0 °F 30.2 in South 16 mph 13 mph 34% 0.000 in 976.00 W/m2
13:29 71.0 °F 40.0 °F 30.2 in SSW 27 mph 16 mph 32% 0.000 in 970.00 W/m2
13:34 71.0 °F 40.0 °F 30.2 in SSW 13 mph 26 mph 32% 0.000 in 965.00 W/m2
13:39 71.0 °F 40.0 °F 30.2 in SW 11 mph 13 mph 33% 0.000 in 963.00 W/m2
13:43 71.0 °F 40.0 °F 30.2 in SSW 11 mph 10 mph 33% 0.000 in 956.00 W/m2
13:49 71.0 °F 40.0 °F 30.2 in West 11 mph 10 mph 33% 0.000 in 958.00 W/m2
13:54 71.0 °F 40.0 °F 30.2 in WSW 18 mph 13 mph 32% 0.000 in 951.00 W/m2
13:59 71.0 °F 40.0 °F 30.2 in SW 11 mph 17 mph 32% 0.000 in 944.00 W/m2
14:04 71.0 °F 39.0 °F 30.2 in WSW 11 mph 10 mph 31% 0.000 in 939.00 W/m2
14:09 72.0 °F 39.0 °F 30.2 in WSW 11 mph 10 mph 31% 0.000 in 932.00 W/m2
14:14 72.0 °F 40.0 °F 30.2 in South 9 mph 10 mph 31% 0.000 in 925.00 W/m2
14:19 73.0 °F 40.0 °F 30.2 in SSW 9 mph 9 mph 31% 0.000 in 923.00 W/m2
14:24 73.0 °F 40.0 °F 30.2 in East 7 mph 9 mph 30% 0.000 in 912.00 W/m2
14:29 74.0 °F 40.0 °F 30.2 in East 13 mph 7 mph 30% 0.000 in 905.00 W/m2
14:34 74.0 °F 41.0 °F 30.2 in North 9 mph 13 mph 30% 0.000 in 900.00 W/m2
14:39 75.0 °F 40.0 °F 30.2 in SW 11 mph 9 mph 29% 0.000 in 888.00 W/m2
14:44 75.0 °F 39.0 °F 30.2 in SW 9 mph 10 mph 28% 0.000 in 881.00 W/m2
14:49 75.0 °F 40.0 °F 30.2 in WSW 7 mph 9 mph 29% 0.000 in 868.00 W/m2
14:54 75.0 °F 40.0 °F 30.2 in SSW 9 mph 7 mph 28% 0.000 in 860.00 W/m2
14:59 75.0 °F 39.0 °F 30.2 in SSW 9 mph 9 mph 27% 0.000 in 851.00 W/m2
15:04 75.0 °F 41.0 °F 30.2 in East 11 mph 9 mph 29% 0.000 in 842.00 W/m2
15:09 75.0 °F 39.0 °F 30.2 in WSW 21 mph 13 mph 27% 0.000 in 833.00 W/m2
15:14 75.0 °F 39.0 °F 30.2 in SW 11 mph 21 mph 27% 0.000 in 821.00 W/m2
15:19 75.0 °F 39.0 °F 30.2 in WSW 14 mph 10 mph 27% 0.000 in 805.00 W/m2
15:24 75.0 °F 40.0 °F 30.2 in SW 7 mph 14 mph 28% 0.000 in 796.00 W/m2
15:29 75.0 °F 40.0 °F 30.2 in WNW 7 mph 7 mph 28% 0.000 in 782.00 W/m2
15:34 75.0 °F 40.0 °F 30.2 in West 4 mph 7 mph 28% 0.000 in 768.00 W/m2
15:39 75.0 °F 40.0 °F 30.2 in SW 9 mph 6 mph 28% 0.000 in 756.00 W/m2
15:44 75.0 °F 38.0 °F 30.2 in WNW 9 mph 9 mph 26% 0.000 in 744.00 W/m2
15:49 75.0 °F 40.0 °F 30.2 in SW 13 mph 9 mph 28% 0.000 in 729.00 W/m2
15:54 75.0 °F 40.0 °F 30.2 in South 7 mph 13 mph 28% 0.000 in 719.00 W/m2
15:59 75.0 °F 40.0 °F 30.2 in SW 9 mph 7 mph 28% 0.000 in 708.00 W/m2
16:04 75.0 °F 40.0 °F 30.2 in WSW 6 mph 9 mph 28% 0.000 in 691.00 W/m2
16:09 75.0 °F 40.0 °F 30.2 in SW 4 mph 6 mph 28% 0.000 in 677.00 W/m2
16:14 76.0 °F 40.0 °F 30.2 in North 13 mph 9 mph 28% 0.000 in 666.00 W/m2
16:19 76.0 °F 39.0 °F 30.2 in SW 7 mph 13 mph 27% 0.000 in 650.00 W/m2
16:24 76.0 °F 40.0 °F 30.2 in SSW 6 mph 7 mph 27% 0.000 in 635.00 W/m2
16:29 76.0 °F 40.0 °F 30.2 in WSW 9 mph 6 mph 27% 0.000 in 624.00 W/m2
16:34 76.0 °F 40.0 °F 30.2 in SW 4 mph 9 mph 27% 0.000 in 606.00 W/m2
16:39 77.0 °F 41.0 °F 30.2 in West 6 mph 6 mph 28% 0.000 in 592.00 W/m2
16:44 77.0 °F 41.0 °F 30.2 in WSW 6 mph 6 mph 28% 0.000 in 577.00 W/m2
16:49 77.0 °F 38.0 °F 30.2 in WSW 6 mph 6 mph 25% 0.000 in 561.00 W/m2
16:54 77.0 °F 39.0 °F 30.2 in WSW 7 mph 6 mph 25% 0.000 in 545.00 W/m2
16:59 77.0 °F 39.0 °F 30.2 in WSW 6 mph 7 mph 25% 0.000 in 529.00 W/m2
17:04 77.0 °F 39.0 °F 30.2 in WSW 9 mph 9 mph 25% 0.000 in 513.00 W/m2
17:09 77.0 °F 39.0 °F 30.2 in WSW 6 mph 9 mph 26% 0.000 in 497.00 W/m2
17:14 77.0 °F 39.0 °F 30.2 in SW 7 mph 6 mph 26% 0.000 in 483.00 W/m2
17:19 77.0 °F 39.0 °F 30.2 in SSE 11 mph 7 mph 26% 0.000 in 466.00 W/m2
17:24 77.0 °F 39.0 °F 30.2 in SW 2 mph 10 mph 26% 0.000 in 450.00 W/m2
17:29 77.0 °F 40.0 °F 30.2 in Calm   2 mph 27% 0.000 in 432.00 W/m2
17:34 77.0 °F 39.0 °F 30.2 in West 7 mph 2 mph 26% 0.000 in 415.00 W/m2
17:39 76.0 °F 38.0 °F 30.2 in WSW 7 mph 7 mph 25% 0.000 in 401.00 W/m2
17:44 76.0 °F 38.0 °F 30.2 in SW 12 mph 7 mph 25% 0.000 in 383.00 W/m2
17:49 76.0 °F 39.0 °F 30.2 in SW 13 mph 13 mph 26% 0.000 in 276.00 W/m2
17:54 75.0 °F 38.0 °F 30.2 in SW 7 mph 6 mph 26% 0.000 in 77.00 W/m2
17:59 75.0 °F 38.0 °F 30.2 in West 4 mph 7 mph 26% 0.000 in 74.00 W/m2
18:03 74.0 °F 38.0 °F 30.2 in WSW 2 mph 3 mph 27% 0.000 in 51.00 W/m2
18:09 74.0 °F 38.0 °F 30.2 in WSW 2 mph 2 mph 28% 0.000 in 47.00 W/m2
18:14 73.0 °F 38.0 °F 30.2 in SSW 4 mph 2 mph 28% 0.000 in 44.00 W/m2
18:19 73.0 °F 38.0 °F 30.2 in SW 2 mph 3 mph 29% 0.000 in 40.00 W/m2
18:24 72.0 °F 38.0 °F 30.2 in SW 2 mph   29% 0.000 in 39.00 W/m2
18:29 72.0 °F 39.0 °F 30.2 in SW 2 mph 2 mph 30% 0.000 in 35.00 W/m2
18:34 72.0 °F 39.0 °F 30.2 in SW 2 mph 2 mph 30% 0.000 in 32.00 W/m2
18:39 72.0 °F 40.0 °F 30.2 in SW 2 mph 2 mph 32% 0.000 in 30.00 W/m2
18:44 72.0 °F 38.0 °F 30.2 in Calm   2 mph 29% 0.000 in 26.00 W/m2
18:49 72.0 °F 39.0 °F 30.2 in Calm     31% 0.000 in 51.00 W/m2
18:54 71.0 °F 39.0 °F 30.2 in SW 2 mph 2 mph 31% 0.000 in 67.00 W/m2
18:59 71.0 °F 41.0 °F 30.2 in West 7 mph 2 mph 33% 0.000 in 37.00 W/m2
19:04 71.0 °F 40.0 °F 30.2 in WNW 2 mph 7 mph 33% 0.000 in 23.00 W/m2
19:09 71.0 °F 39.0 °F 30.2 in WSW 4 mph 1 mph 31% 0.000 in 21.00 W/m2
19:14 71.0 °F 40.0 °F 30.2 in Calm   3 mph 33% 0.000 in 19.00 W/m2
19:19 70.0 °F 40.0 °F 30.2 in Calm     33% 0.000 in 18.00 W/m2
19:24 70.0 °F 39.0 °F 30.2 in SW 2 mph   33% 0.000 in 14.00 W/m2
19:29 70.0 °F 39.0 °F 30.2 in SW 2 mph 2 mph 33% 0.000 in 14.00 W/m2
19:34 69.0 °F 38.0 °F 30.2 in SW 2 mph 2 mph 32% 0.000 in 12.00 W/m2
19:39 69.0 °F 38.0 °F 30.2 in Calm     32% 0.000 in 12.00 W/m2
19:44 69.0 °F 38.0 °F 30.2 in Calm     33% 0.000 in 11.00 W/m2
19:48 68.0 °F 37.0 °F 30.2 in Calm     32% 0.000 in 11.00 W/m2
El Dorado Weather
Compliments of Weather Underground - 2 mb